Weather History for Tupelo, MS

Change the Weather History Date:

Wednesday, July 24, 2013

  Actual Average Record
Temperature  
Mean Temperature 82 °F 82 °F  
Max Temperature 90 °F 92 °F 104 °F (1952)
Min Temperature 73 °F 71 °F 61 °F (2003)
Degree Days  
Heating Degree Days 0 0  
Month to date heating degree days 0 0  
Since 1 June heating degree days 0 0  
Since 1 July heating degree days 0 0  
Cooling Degree Days 17 17  
Month to date cooling degree days 367 397  
Year to date cooling degree days 1029 1069  
Since 1 June cooling degree days 783 792  
Growing Degree Days 32 (Base 50)    
Moisture  
Dew Point 72 °F    
Average Humidity 75    
Maximum Humidity 94    
Minimum Humidity 55    
Precipitation  
Precipitation 0.35 in 0.12 in 2.46 in (1998)
Month to date precipitation 2.81 3.06  
Year to date precipitation 33.28 32.18  
Snow  
Snow 0.00 in 0.00 in - ()
Month to date snowfall 0.0 0.0  
Since 1 June snowfall 0.0 0.0  
Since 1 July snowfall 0.0 0.0  
Snow Depth 0.00 in    
Sea Level Pressure  
Sea Level Pressure 29.88 in    
Wind  
Wind Speed 2 mph (WNW)    
Max Wind Speed 33 mph    
Max Gust Speed 40 mph    
Visibility 9 miles    
Events Rain , Thunderstorm    
T = Trace of Precipitation, MM = Missing Value Source: NWS Daily Summary

Daily Weather History Graph

Daily Weather History Graph

Search for Another Location

Airport:

Trip Planner

Search our weather history database for the weather conditions in past years. The results will help you decide how hot, cold, wet, or windy it might be!

Date:

Astronomy

Jul. 24, 2013 Rise Set
Actual Time 6:00 AM CDT 8:02 PM CDT
Civil Twilight 5:32 AM CDT 8:30 PM CDT
Nautical Twilight 4:58 AM CDT 9:04 PM CDT
Astronomical Twilight 4:21 AM CDT 9:40 PM CDT
Moon 9:18 PM CDT (7/24) 8:11 AM CDT (7/24)
Length of Visible Light 14h 57m
Length of Day
14h 01m
Waning Gibbous, 94% of the Moon is Illuminated
Jul 24
Waning Gibbous
Jul 29
Last Quarter
Aug 6
New
Aug 14
First Quarter
Aug 20
Full

Hourly Weather History & Observations

Time (CDT) Temp. Heat Index Dew Point Humidity Pressure Visibility Wind Dir Wind Speed Gust Speed Precip Events Conditions
12:13 AM 75.2 °F - 71.6 °F 89% 29.90 in 10.0 mi South 3.5 mph - N/A   Clear
12:53 AM 75.0 °F - 72.0 °F 90% 29.88 in 10.0 mi South 3.5 mph - N/A   Clear
1:53 AM 73.9 °F - 72.0 °F 93% 29.85 in 10.0 mi Calm Calm - N/A   Clear
2:33 AM 73.4 °F - 71.6 °F 94% 29.86 in 10.0 mi SSW 3.5 mph - N/A   Mostly Cloudy
2:53 AM 73.9 °F - 72.0 °F 93% 29.85 in 10.0 mi Calm Calm - N/A   Mostly Cloudy
3:01 AM 73.4 °F - 71.6 °F 94% 29.86 in 10.0 mi East 4.6 mph - N/A   Scattered Clouds
3:53 AM 73.9 °F - 72.0 °F 93% 29.85 in 10.0 mi Calm Calm - N/A   Mostly Cloudy
4:53 AM 73.9 °F - 72.0 °F 93% 29.87 in 10.0 mi Calm Calm - 0.00 in   Partly Cloudy
5:12 AM 73.4 °F - 71.6 °F 94% 29.87 in 10.0 mi Calm Calm - N/A   Scattered Clouds
5:26 AM 73.4 °F - 71.6 °F 94% 29.88 in 10.0 mi WSW 3.5 mph - N/A   Mostly Cloudy
5:53 AM 73.0 °F - 72.0 °F 96% 29.88 in 10.0 mi Calm Calm - N/A   Overcast
6:10 AM 73.4 °F - 71.6 °F 94% 29.88 in 10.0 mi Calm Calm - N/A   Scattered Clouds
6:53 AM 73.9 °F - 72.0 °F 93% 29.88 in 10.0 mi WSW 5.8 mph - N/A   Clear
7:00 AM 73.4 °F - 71.6 °F 94% 29.89 in 10.0 mi West 4.6 mph - N/A   Scattered Clouds
7:10 AM 73.4 °F - 71.6 °F 94% 29.89 in 7.0 mi West 5.8 mph - N/A   Mostly Cloudy
7:53 AM 75.0 °F - 73.0 °F 94% 29.89 in 10.0 mi NW 3.5 mph - N/A   Overcast
8:12 AM 77.0 °F - 73.4 °F 89% 29.90 in 10.0 mi Calm Calm - N/A   Scattered Clouds
8:53 AM 78.1 °F - 73.9 °F 87% 29.90 in 10.0 mi Calm Calm - N/A   Scattered Clouds
9:53 AM 82.0 °F 86.7 °F 72.0 °F 71% 29.89 in 10.0 mi Calm Calm - N/A   Mostly Cloudy
10:53 AM 84.9 °F 89.4 °F 70.0 °F 61% 29.90 in 10.0 mi West 5.8 mph - N/A   Mostly Cloudy
11:53 AM 86.0 °F 90.1 °F 69.1 °F 57% 29.91 in 10.0 mi Variable 5.8 mph - N/A   Mostly Cloudy
12:53 PM 88.0 °F 92.9 °F 70.0 °F 55% 29.89 in 10.0 mi Variable 3.5 mph - N/A   Clear
1:53 PM 88.0 °F 93.8 °F 71.1 °F 57% 29.87 in 10.0 mi NW 3.5 mph - N/A   Clear
2:53 PM 89.1 °F 96.0 °F 72.0 °F 57% 29.86 in 10.0 mi NW 5.8 mph - N/A   Scattered Clouds
3:53 PM 87.1 °F 93.6 °F 72.0 °F 61% 29.85 in 10.0 mi North 8.1 mph - N/A   Overcast
4:40 PM 87.8 °F 93.8 °F 71.6 °F 58% 29.86 in 10.0 mi Variable 6.9 mph - N/A Thunderstorm Thunderstorm
4:53 PM 86.0 °F 91.5 °F 71.1 °F 61% 29.85 in 10.0 mi North 8.1 mph - N/A Thunderstorm Thunderstorm
5:14 PM 73.4 °F - 69.8 °F 88% 29.89 in 1.8 mi ENE 27.6 mph 40.3 mph 0.00 in Rain , Thunderstorm Thunderstorms and Rain
5:19 PM 73.4 °F - 69.8 °F 88% 29.90 in 0.8 mi East 20.7 mph 40.3 mph 0.17 in Rain Heavy Rain
5:26 PM 75.2 °F - 69.8 °F 83% 29.88 in 1.0 mi NNW 6.9 mph 31.1 mph 0.34 in Rain Heavy Rain
5:32 PM 73.4 °F - 69.8 °F 88% 29.87 in 3.0 mi North 6.9 mph - 0.35 in Rain Light Rain
5:53 PM 75.9 °F - 70.0 °F 82% 29.86 in 10.0 mi Calm Calm - 0.35 in   Partly Cloudy
6:53 PM 79.0 °F - 73.0 °F 82% 29.88 in 10.0 mi WNW 3.5 mph - N/A   Clear
7:53 PM 78.1 °F - 72.0 °F 81% 29.89 in 10.0 mi Calm Calm - N/A   Clear
8:53 PM 75.9 °F - 73.0 °F 91% 29.90 in 10.0 mi Calm Calm - N/A   Clear
9:53 PM 75.0 °F - 72.0 °F 90% 29.92 in 10.0 mi Calm Calm - N/A   Clear
10:53 PM 75.0 °F - 73.0 °F 94% - 10.0 mi Calm Calm - N/A   Clear
11:53 PM 75.0 °F - 72.0 °F 90% - 10.0 mi Calm Calm - N/A   Mostly Cloudy